Meteo Giornale » Osservazioni meteo India » Bengaluru
ore: 04:30 - Osservazioni Meteo Bengaluru
Lat. 13° 12' N Lon. 77° 42' E Alt. 915 metri s.l.m.
21 °C
Nuvoloso
Temp. 24 Ore
20 °C
29 °C
Ovest
16.7 Km/h
Dew point 19 °C
Umidità 88 %
Visibilità 6 Km
Il sole sorge alle ore 06:07
Il sole tramonta alle ore 18:29
| Data e Ora | Cielo e Fenomeni | T °C | DP °C | Um. % | Pres. hPa | Vis. km | Vento km/h | |
|---|---|---|---|---|---|---|---|---|
| Oggi h: 04:30 | Nuvoloso | 21 | 19 | 88 | 1015 | 6 | O 16.7 | |
| Oggi h: 04:00 | Nuvoloso | 21 | 18 | 82 | 1015 | 6 | O 18.5 | |
| Oggi h: 03:30 | Molto Nuvoloso | 21 | 18 | 82 | 1015 | 6 | O 13 | |
| Oggi h: 03:00 | Molto Nuvoloso | 22 | 19 | 83 | 1015 | 6 | O 18.5 | |
| Oggi h: 02:30 | Molto Nuvoloso | 22 | 19 | 83 | 1015 | 6 | O 11.1 | |
| Oggi h: 02:00 | Molto Nuvoloso | 22 | 19 | 83 | 1015 | 6 | O/NO 14.8 | |
| Oggi h: 01:30 | Molto Nuvoloso | 22 | 19 | 83 | 1015 | 6 | O 14.8 | |
| Oggi h: 01:00 | Molto Nuvoloso | 22 | 19 | 83 | 1016 | 6 | O 13 | |
| Oggi h: 00:30 | Molto Nuvoloso | 22 | 19 | 83 | 1016 | 6 | O 14.8 | |
| Oggi h: 00:00 | Molto Nuvoloso | 23 | 19 | 78 | 1017 | 6 | O 14.8 | |
| Ieri h: 23:30 | Molto Nuvoloso | 23 | 19 | 78 | 1017 | 6 | O 9.3 | |
| Ieri h: 23:00 | Molto Nuvoloso | 23 | 19 | 78 | 1017 | 6 | O 9.3 | |
| Ieri h: 22:30 | Molto Nuvoloso | 23 | 19 | 78 | 1017 | 6 | NO 7.4 | |
| Ieri h: 22:00 | Molto Nuvoloso | 23 | 19 | 78 | 1017 | 6 | O/NO 14.8 | |
| Ieri h: 21:30 | Molto Nuvoloso | 23 | 19 | 78 | 1017 | 6 | O/NO 11.1 | |
| Ieri h: 21:00 | Molto Nuvoloso | 23 | 19 | 78 | 1017 | 6 | O/NO 14.8 | |
| Ieri h: 20:30 | Molto Nuvoloso | 23 | 19 | 78 | 1016 | 6 | O/NO 14.8 | |
| Ieri h: 20:00 | Molto Nuvoloso | 24 | 19 | 73 | 1016 | 6 | NO 14.8 | |
| Ieri h: 19:30 | Molto Nuvoloso | 24 | 19 | 73 | 1015 | 6 | O/SO 9.3 | |
| Ieri h: 19:00 | Molto Nuvoloso | 23 | 19 | 78 | 1015 | 6 | NO 18.5 | |
| Ieri h: 18:30 | Molto Nuvoloso | 23 | 19 | 78 | 1015 | 6 | NO 18.5 | |
| Ieri h: 18:00 | Molto Nuvoloso | 24 | 20 | 78 | 1014 | 6 | NO 18.5 | |
| Ieri h: 17:35 | Pioggia | 26 | 18 | 61 | 1013 | 5 | NO 25.9 | |
| Ieri h: 17:30 | Pioggia | 26 | 18 | 61 | 1013 | 5 | NO 25.9 | |
| Ieri h: 17:00 | Nuvoloso | 28 | 17 | 51 | 1013 | 8 | NO 13 | |
| Ieri h: 16:30 | Nuvoloso | 28 | 17 | 51 | 1013 | 10 | O/NO 13 | |
| Ieri h: 16:00 | Nuvoloso | 29 | 17 | 48 | 1013 | 10 | O/NO 13 | |
| Ieri h: 15:30 | Nuvoloso | 29 | 17 | 48 | 1013 | 10 | O/NO 14.8 | |
| Ieri h: 15:00 | Nuvoloso | 29 | 16 | 45 | 1013 | 10 | NO 18.5 | |
| Ieri h: 14:30 | Nuvoloso | 29 | 17 | 48 | 1013 | 10 | O/NO 16.7 | |
| Ieri h: 14:00 | Nuvoloso | 29 | 17 | 48 | 1014 | 10 | O/NO 22.2 | |
| Ieri h: 13:30 | Nuvoloso | 28 | 17 | 51 | 1014 | 10 | O/NO 18.5 | |
| Ieri h: 13:00 | Nuvoloso | 28 | 17 | 51 | 1015 | 10 | O/NO 24 | |
| Ieri h: 12:30 | Nuvoloso | 27 | 18 | 57 | 1015 | 10 | O/NO 27.8 | |
| Ieri h: 12:00 | Nuvoloso | 27 | 18 | 57 | 1015 | 10 | O/NO 25.9 | |
| Ieri h: 11:30 | Nuvoloso | 26 | 18 | 61 | 1016 | 10 | O/NO 22.2 | |
| Ieri h: 11:00 | Nuvoloso | 26 | 18 | 61 | 1016 | 10 | O 22.2 | |
| Ieri h: 10:30 | Nuvoloso | 25 | 18 | 65 | 1016 | 10 | O/NO 25.9 | |
| Ieri h: 10:00 | Nuvoloso | 25 | 18 | 65 | 1016 | 10 | O/NO 25.9 | |
| Ieri h: 09:30 | Nuvoloso | 23 | 18 | 73 | 1016 | 10 | O/NO 14.8 | |
| Ieri h: 09:00 | Nuvoloso | 23 | 18 | 73 | 1016 | 8 | O/NO 25.9 | |
| Ieri h: 08:30 | Nuvoloso | 22 | 18 | 78 | 1016 | 6 | O/NO 18.5 | |
| Ieri h: 08:00 | Nuvoloso | 22 | 19 | 83 | 1016 | 6 | O 18.5 | |
| Ieri h: 07:30 | Nuvoloso | 21 | 18 | 82 | 1015 | 6 | O 20.3 | |
| Ieri h: 07:00 | Nuvoloso | 20 | 18 | 88 | 1015 | 6 | O 18.5 | |
| Ieri h: 06:30 | Nuvoloso | 20 | 18 | 88 | 1015 | 6 | O 14.8 | |
| Ieri h: 06:00 | Nuvoloso | 20 | 18 | 88 | 1014 | 6 | O 14.8 | |
| Ieri h: 05:30 | Poco Nuvoloso | 20 | 18 | 88 | 1014 | 6 | O 14.8 | |



